EZY8398 LFBZ-EGKK

Flight info

Callsign EZY8398
Flight time 1h 19m
Altitude 34000
Route VAVIX DCT CNA DCT MANAK DCT EPAPU DCT RINSO DCT EKRAS DCT REVTU DCT ODREP UP88 VASUX
Aircraft A320/M-SDE3FGHIRWY/LB1

Departure

Time 2026-05-05 09:58
Airport Biarritz Pays Basque airport (LFBZ)

Arrival

Time 2026-05-05 11:17
Airport London Gatwick Airport (EGKK)
Time Latitude Longitude Altitude Speed Heading
2026-05-05 09:36 43.47129 -1.52948 245 ft 0 kts 359°
2026-05-05 09:49 43.47128 -1.52948 245 ft 1 kts 359°
2026-05-05 09:49 43.47104 -1.52948 245 ft 4 kts
2026-05-05 09:50 43.47077 -1.52952 245 ft 4 kts 18°
2026-05-05 09:50 43.47056 -1.52968 245 ft 4 kts 65°
2026-05-05 09:50 43.47053 -1.52979 245 ft 0 kts 89°
2026-05-05 09:52 43.47054 -1.52963 245 ft 4 kts 89°
2026-05-05 09:52 43.47043 -1.52903 245 ft 9 kts 128°
2026-05-05 09:52 43.46992 -1.52819 245 ft 15 kts 98°
2026-05-05 09:53 43.46995 -1.52651 245 ft 20 kts 87°
2026-05-05 09:53 43.46996 -1.52438 244 ft 23 kts 90°
2026-05-05 09:53 43.46996 -1.52238 242 ft 16 kts 97°
2026-05-05 09:53 43.46916 -1.52173 239 ft 14 kts 181°
2026-05-05 09:54 43.46841 -1.52128 239 ft 11 kts 109°
2026-05-05 09:54 43.46840 -1.52020 239 ft 13 kts 89°
2026-05-05 09:54 43.46842 -1.51878 238 ft 18 kts 89°
2026-05-05 09:54 43.46844 -1.51681 236 ft 23 kts 89°
2026-05-05 09:55 43.46848 -1.51441 236 ft 27 kts 89°
2026-05-05 09:55 43.46852 -1.51169 234 ft 27 kts 88°
2026-05-05 09:55 43.46879 -1.51006 237 ft 11 kts 61°
2026-05-05 09:55 43.46867 -1.50960 237 ft 5 kts 174°
2026-05-05 09:56 43.46853 -1.50990 236 ft 3 kts 267°
2026-05-05 09:56 43.46853 -1.50996 236 ft 0 kts 268°
2026-05-05 09:57 43.46853 -1.51022 236 ft 13 kts 268°
2026-05-05 09:57 43.46847 -1.51537 236 ft 92 kts 269°
2026-05-05 09:57 43.46830 -1.52711 246 ft 151 kts 268°
2026-05-05 09:57 43.46812 -1.54219 824 ft 157 kts 268°
2026-05-05 09:58 43.46786 -1.55749 1495 ft 167 kts 268°
2026-05-05 09:58 43.46762 -1.57453 1788 ft 189 kts 270°
2026-05-05 09:58 43.46749 -1.59321 2260 ft 198 kts 272°
2026-05-05 09:58 43.47213 -1.61135 2603 ft 216 kts 310°
2026-05-05 09:59 43.48582 -1.62125 3053 ft 237 kts 351°
2026-05-05 09:59 43.50263 -1.61681 3502 ft 263 kts 29°
2026-05-05 09:59 43.51565 -1.59903 4333 ft 270 kts 50°
2026-05-05 09:59 43.52928 -1.58133 5094 ft 272 kts 25°
2026-05-05 10:00 43.54753 -1.57610 5876 ft 270 kts 353°
2026-05-05 10:00 43.56622 -1.57981 6702 ft 272 kts 350°
2026-05-05 10:00 43.58509 -1.57890 7460 ft 281 kts 11°
2026-05-05 10:00 43.60280 -1.56717 8215 ft 290 kts 38°
2026-05-05 10:01 43.61707 -1.54722 9007 ft 294 kts 46°
2026-05-05 10:01 43.63101 -1.52634 9801 ft 298 kts 47°
2026-05-05 10:01 43.64527 -1.50491 10343 ft 311 kts 47°
2026-05-05 10:01 43.66046 -1.48212 10542 ft 333 kts 47°
2026-05-05 10:02 43.67668 -1.45778 10760 ft 354 kts 47°
2026-05-05 10:02 43.69356 -1.43243 11287 ft 362 kts 47°
2026-05-05 10:02 43.71072 -1.40662 11938 ft 367 kts 47°
2026-05-05 10:02 43.72812 -1.38048 12617 ft 370 kts 47°
2026-05-05 10:03 43.74567 -1.35408 13264 ft 375 kts 47°
2026-05-05 10:03 43.76337 -1.32742 13916 ft 378 kts 48°
2026-05-05 10:03 43.78129 -1.30043 14510 ft 382 kts 48°
2026-05-05 10:03 43.79959 -1.27365 15108 ft 385 kts 43°
2026-05-05 10:04 43.81955 -1.24939 15683 ft 388 kts 41°
2026-05-05 10:04 43.84004 -1.22480 16267 ft 391 kts 41°
2026-05-05 10:04 43.86069 -1.20003 16855 ft 394 kts 41°
2026-05-05 10:04 43.88146 -1.17509 17416 ft 397 kts 41°
2026-05-05 10:05 43.90238 -1.14996 17972 ft 400 kts 41°
2026-05-05 10:05 43.92349 -1.12457 18469 ft 403 kts 41°
2026-05-05 10:05 43.94471 -1.09899 18937 ft 406 kts 41°
2026-05-05 10:05 43.96610 -1.07316 19397 ft 409 kts 41°
2026-05-05 10:06 43.98763 -1.04715 19855 ft 411 kts 41°
2026-05-05 10:06 44.00930 -1.02096 20325 ft 414 kts 41°
2026-05-05 10:06 44.03107 -0.99463 20787 ft 416 kts 42°
2026-05-05 10:06 44.05295 -0.96814 21310 ft 417 kts 42°
2026-05-05 10:07 44.07486 -0.94160 21803 ft 418 kts 42°
2026-05-05 10:07 44.09682 -0.91491 22304 ft 421 kts 42°
2026-05-05 10:07 44.11893 -0.88803 22857 ft 423 kts 42°
2026-05-05 10:07 44.14116 -0.86095 23384 ft 426 kts 42°
2026-05-05 10:08 44.15596 -0.84292 23689 ft 427 kts 42°
2026-05-05 10:08 44.17843 -0.81553 24030 ft 430 kts 42°
2026-05-05 10:08 44.20833 -0.77901 24436 ft 433 kts 42°
2026-05-05 10:08 44.23107 -0.75122 24695 ft 437 kts 42°
2026-05-05 10:09 44.25470 -0.72434 24983 ft 440 kts 35°
2026-05-05 10:09 44.27231 -0.70896 25181 ft 443 kts 29°
2026-05-05 10:09 44.30005 -0.69135 25469 ft 445 kts 19°
2026-05-05 10:09 44.32997 -0.67983 25759 ft 448 kts 10°
2026-05-05 10:10 44.36069 -0.67161 26046 ft 451 kts 10°
2026-05-05 10:10 44.39161 -0.66334 26339 ft 453 kts 10°
2026-05-05 10:10 44.42270 -0.65496 26625 ft 456 kts 10°
2026-05-05 10:10 44.45385 -0.64650 26987 ft 457 kts 10°
2026-05-05 10:11 44.48513 -0.63801 27291 ft 459 kts 10°
2026-05-05 10:11 44.51653 -0.62947 27573 ft 461 kts 10°
2026-05-05 10:11 44.54818 -0.62082 27846 ft 464 kts 10°
2026-05-05 10:11 44.57996 -0.61210 28110 ft 466 kts 10°
2026-05-05 10:12 44.61191 -0.60331 28362 ft 469 kts 10°
2026-05-05 10:12 44.64405 -0.59450 28640 ft 470 kts 10°
2026-05-05 10:12 44.67629 -0.58566 28895 ft 473 kts 10°
2026-05-05 10:12 44.70823 -0.57693 29175 ft 475 kts 10°
2026-05-05 10:13 44.74081 -0.56801 29475 ft 478 kts 10°
2026-05-05 10:13 44.77353 -0.55901 29747 ft 480 kts 10°
2026-05-05 10:13 44.80624 -0.55001 30094 ft 479 kts 10°
2026-05-05 10:13 44.83657 -0.54165 30346 ft 479 kts 10°
2026-05-05 10:14 44.86926 -0.53263 30620 ft 479 kts 10°
2026-05-05 10:14 44.90198 -0.52361 30908 ft 479 kts 10°
2026-05-05 10:14 44.93470 -0.51458 31178 ft 479 kts 10°
2026-05-05 10:14 44.96741 -0.50558 31449 ft 479 kts 10°
2026-05-05 10:15 45.00007 -0.49658 31730 ft 478 kts 10°
2026-05-05 10:15 45.03271 -0.48753 32031 ft 477 kts 10°
2026-05-05 10:15 45.06534 -0.47846 32330 ft 477 kts 10°
2026-05-05 10:15 45.09799 -0.46937 32605 ft 476 kts 10°
2026-05-05 10:16 45.13048 -0.46028 32880 ft 476 kts 10°
2026-05-05 10:16 45.16299 -0.45118 33164 ft 476 kts 10°
2026-05-05 10:16 45.19546 -0.44209 33456 ft 476 kts 11°
2026-05-05 10:16 45.22785 -0.43304 33778 ft 474 kts 11°
2026-05-05 10:17 45.25984 -0.42412 34055 ft 473 kts 11°
2026-05-05 10:17 45.29221 -0.41508 34292 ft 473 kts 10°
2026-05-05 10:17 45.32448 -0.40603 34515 ft 473 kts 10°
2026-05-05 10:17 45.35681 -0.39698 34738 ft 473 kts 10°
2026-05-05 10:18 45.38918 -0.38793 34893 ft 474 kts 11°
2026-05-05 10:18 45.42152 -0.37887 34939 ft 474 kts 11°
2026-05-05 10:18 45.48612 -0.36070 34930 ft 473 kts 11°
2026-05-05 10:19 45.55070 -0.34249 34922 ft 473 kts 11°
2026-05-05 10:19 45.61578 -0.33078 34920 ft 472 kts 357°
2026-05-05 10:20 45.67932 -0.34894 34920 ft 469 kts 336°
2026-05-05 10:20 45.73491 -0.39626 34933 ft 464 kts 320°
2026-05-05 10:21 45.78570 -0.45353 34914 ft 464 kts 320°
2026-05-05 10:21 45.83644 -0.51095 34924 ft 465 kts 320°
2026-05-05 10:22 45.88725 -0.56859 34919 ft 465 kts 320°
2026-05-05 10:22 45.93772 -0.62601 34917 ft 466 kts 320°
2026-05-05 10:23 45.98846 -0.68394 34913 ft 465 kts 320°
2026-05-05 10:23 46.03919 -0.74183 34900 ft 465 kts 320°
2026-05-05 10:24 46.08992 -0.79986 34908 ft 465 kts 320°
2026-05-05 10:24 46.14056 -0.85803 34904 ft 466 kts 320°
2026-05-05 10:25 46.19163 -0.91490 34898 ft 467 kts 327°
2026-05-05 10:25 46.25082 -0.95285 34926 ft 468 kts 345°
2026-05-05 10:26 46.31455 -0.97264 34923 ft 469 kts 348°
2026-05-05 10:26 46.37837 -0.99237 34919 ft 469 kts 348°
2026-05-05 10:27 46.44230 -1.01215 34894 ft 470 kts 348°
2026-05-05 10:27 46.50626 -1.03180 34911 ft 470 kts 348°
2026-05-05 10:28 46.57029 -1.05145 34907 ft 470 kts 348°
2026-05-05 10:28 46.63424 -1.07122 34917 ft 470 kts 348°
2026-05-05 10:29 46.69771 -1.09106 34921 ft 469 kts 348°
2026-05-05 10:29 46.76157 -1.11097 34920 ft 469 kts 348°
2026-05-05 10:30 46.82541 -1.13087 34915 ft 469 kts 348°
2026-05-05 10:30 46.88913 -1.15082 34913 ft 468 kts 348°
2026-05-05 10:31 46.95297 -1.17077 34907 ft 468 kts 348°
2026-05-05 10:31 47.01670 -1.19080 34910 ft 468 kts 348°
2026-05-05 10:32 47.08039 -1.21088 34910 ft 468 kts 348°
2026-05-05 10:32 47.14401 -1.23092 34914 ft 468 kts 348°
2026-05-05 10:33 47.20769 -1.25104 34915 ft 468 kts 349°
2026-05-05 10:33 47.27094 -1.27111 34914 ft 468 kts 349°
2026-05-05 10:34 47.33466 -1.29145 34911 ft 468 kts 349°
2026-05-05 10:34 47.39846 -1.31176 34901 ft 468 kts 349°
2026-05-05 10:35 47.46230 -1.33204 34878 ft 469 kts 349°
2026-05-05 10:35 47.52605 -1.35258 34887 ft 469 kts 349°
2026-05-05 10:36 47.58991 -1.37317 34868 ft 469 kts 349°
2026-05-05 10:36 47.65342 -1.39363 34875 ft 470 kts 349°
2026-05-05 10:37 47.71768 -1.41220 34877 ft 469 kts 356°
2026-05-05 10:37 47.78281 -1.41739 34876 ft 469 kts 359°
2026-05-05 10:38 47.84799 -1.42220 34881 ft 469 kts 359°
2026-05-05 10:38 47.91337 -1.42728 34887 ft 470 kts 359°
2026-05-05 10:39 47.97873 -1.43233 34894 ft 470 kts 359°
2026-05-05 10:39 48.04413 -1.43722 34892 ft 471 kts 359°
2026-05-05 10:40 48.10908 -1.44182 34896 ft 471 kts 359°
2026-05-05 10:40 48.17464 -1.44634 34903 ft 471 kts 359°
2026-05-05 10:41 48.24022 -1.45107 34899 ft 471 kts 359°
2026-05-05 10:41 48.30587 -1.45588 34902 ft 472 kts 359°
2026-05-05 10:42 48.40064 -1.46269 34916 ft 472 kts 359°
2026-05-05 10:43 48.46628 -1.46740 34915 ft 473 kts 359°
2026-05-05 10:43 48.53166 -1.47227 34915 ft 473 kts 358°
2026-05-05 10:44 48.59743 -1.47704 34920 ft 473 kts 359°
2026-05-05 10:44 48.66327 -1.48175 34918 ft 473 kts 358°
2026-05-05 10:45 48.72910 -1.48663 34922 ft 474 kts 358°
2026-05-05 10:45 48.79492 -1.49151 34918 ft 474 kts 358°
2026-05-05 10:46 48.86089 -1.49631 34919 ft 474 kts 358°
2026-05-05 10:46 48.92594 -1.50748 34921 ft 475 kts 348°
2026-05-05 10:47 48.99057 -1.52834 34923 ft 475 kts 348°
2026-05-05 10:47 49.05535 -1.54923 34924 ft 475 kts 348°
2026-05-05 10:48 49.12000 -1.57003 34932 ft 474 kts 348°
2026-05-05 10:48 49.18460 -1.59079 34946 ft 474 kts 348°
2026-05-05 10:49 49.24710 -1.61103 34957 ft 473 kts 348°
2026-05-05 10:49 49.30999 -1.63155 34956 ft 473 kts 348°
2026-05-05 10:50 49.37389 -1.65235 34972 ft 472 kts 348°
2026-05-05 10:50 49.43815 -1.67331 35091 ft 472 kts 348°
2026-05-05 10:50 49.47021 -1.68378 35376 ft 471 kts 348°
2026-05-05 10:51 49.50225 -1.69428 35630 ft 470 kts 348°
2026-05-05 10:51 49.53422 -1.70479 35878 ft 468 kts 347°
2026-05-05 10:51 49.56652 -1.71260 35967 ft 468 kts 356°
2026-05-05 10:52 49.63103 -1.70480 35974 ft 466 kts 15°
2026-05-05 10:52 49.69237 -1.67277 35974 ft 466 kts 20°
2026-05-05 10:53 49.75354 -1.63908 35974 ft 465 kts 20°
2026-05-05 10:53 49.78401 -1.62231 35750 ft 466 kts 20°
2026-05-05 10:53 49.81481 -1.60530 34787 ft 474 kts 20°
2026-05-05 10:53 49.84598 -1.58802 33845 ft 479 kts 20°
2026-05-05 10:54 49.87753 -1.57050 32940 ft 481 kts 20°
2026-05-05 10:54 49.90918 -1.55286 31821 ft 486 kts 21°
2026-05-05 10:54 49.94090 -1.53515 31118 ft 483 kts 21°
2026-05-05 10:54 49.97211 -1.51772 30366 ft 481 kts 21°
2026-05-05 10:55 50.00362 -1.50014 29455 ft 481 kts 21°
2026-05-05 10:55 50.03528 -1.48338 28659 ft 479 kts 19°
2026-05-05 10:55 50.06679 -1.46779 28047 ft 472 kts 18°
2026-05-05 10:55 50.09801 -1.45296 27405 ft 465 kts 18°
2026-05-05 10:56 50.12793 -1.43441 26555 ft 461 kts 31°
2026-05-05 10:56 50.15484 -1.40845 25969 ft 453 kts 33°
2026-05-05 10:56 50.18142 -1.38252 25354 ft 448 kts 34°
2026-05-05 10:56 50.20773 -1.35686 24699 ft 444 kts 33°
2026-05-05 10:57 50.23378 -1.33139 24116 ft 439 kts 33°
2026-05-05 10:57 50.25958 -1.30610 23533 ft 435 kts 33°
2026-05-05 10:57 50.28362 -1.27782 22761 ft 431 kts 46°
2026-05-05 10:57 50.30291 -1.24264 22284 ft 422 kts 52°
2026-05-05 10:58 50.32136 -1.20735 21791 ft 415 kts 51°
2026-05-05 10:58 50.33338 -1.18429 21464 ft 411 kts 51°
2026-05-05 10:58 50.35128 -1.14985 21007 ft 404 kts 52°
2026-05-05 10:58 50.36885 -1.11594 20548 ft 398 kts 51°
2026-05-05 10:59 50.38616 -1.08245 20079 ft 393 kts 52°
2026-05-05 10:59 50.40325 -1.04931 19613 ft 388 kts 51°
2026-05-05 10:59 50.42014 -1.01657 19149 ft 384 kts 52°
2026-05-05 10:59 50.43686 -0.98412 18667 ft 380 kts 51°
2026-05-05 11:00 50.45343 -0.95191 18179 ft 378 kts 51°
2026-05-05 11:00 50.46984 -0.91993 17664 ft 374 kts 52°
2026-05-05 11:00 50.48604 -0.88827 17184 ft 370 kts 52°
2026-05-05 11:00 50.50208 -0.85694 16698 ft 367 kts 51°
2026-05-05 11:01 50.51801 -0.82587 16236 ft 364 kts 51°
2026-05-05 11:01 50.53380 -0.79505 15755 ft 361 kts 51°
2026-05-05 11:01 50.54950 -0.76436 15290 ft 359 kts 51°
2026-05-05 11:01 50.56504 -0.73390 14818 ft 356 kts 51°
2026-05-05 11:02 50.58046 -0.70361 14340 ft 354 kts 51°
2026-05-05 11:02 50.59580 -0.67341 13883 ft 352 kts 51°
2026-05-05 11:02 50.61104 -0.64333 13378 ft 350 kts 51°
2026-05-05 11:02 50.62613 -0.61358 12961 ft 345 kts 51°
2026-05-05 11:03 50.64106 -0.58411 12439 ft 343 kts 51°
2026-05-05 11:03 50.65586 -0.55489 11958 ft 340 kts 51°
2026-05-05 11:03 50.67050 -0.52594 11491 ft 337 kts 51°
2026-05-05 11:03 50.68506 -0.49711 11011 ft 334 kts 51°
2026-05-05 11:04 50.69950 -0.46848 10552 ft 332 kts 51°
2026-05-05 11:04 50.71366 -0.44042 10404 ft 320 kts 51°
2026-05-05 11:04 50.72709 -0.41381 10296 ft 308 kts 51°
2026-05-05 11:04 50.74023 -0.38777 10152 ft 297 kts 51°
2026-05-05 11:05 50.75291 -0.36255 9981 ft 289 kts 51°
2026-05-05 11:05 50.76529 -0.33793 9891 ft 286 kts 51°
2026-05-05 11:05 50.77775 -0.31308 9453 ft 288 kts 51°
2026-05-05 11:05 50.79016 -0.28834 9055 ft 286 kts 51°
2026-05-05 11:06 50.80248 -0.26377 8685 ft 284 kts 51°
2026-05-05 11:06 50.81473 -0.23935 8320 ft 283 kts 51°
2026-05-05 11:06 50.82690 -0.21499 7951 ft 282 kts 51°
2026-05-05 11:06 50.83972 -0.19199 7651 ft 276 kts 37°
2026-05-05 11:07 50.85669 -0.17914 7340 ft 271 kts 11°
2026-05-05 11:07 50.87525 -0.18041 7015 ft 269 kts 341°
2026-05-05 11:07 50.89153 -0.19518 6968 ft 274 kts 323°
2026-05-05 11:07 50.90637 -0.21407 6696 ft 273 kts 321°
2026-05-05 11:08 50.92100 -0.23325 6293 ft 272 kts 321°
2026-05-05 11:08 50.93513 -0.25308 5886 ft 272 kts 315°
2026-05-05 11:08 50.94751 -0.27566 5493 ft 271 kts 312°
2026-05-05 11:08 50.95948 -0.29877 5084 ft 270 kts 311°
2026-05-05 11:09 50.97102 -0.32150 4790 ft 265 kts 311°
2026-05-05 11:09 50.98263 -0.34431 4337 ft 266 kts 311°
2026-05-05 11:09 50.99415 -0.36719 4035 ft 261 kts 311°
2026-05-05 11:09 51.00516 -0.38945 3904 ft 251 kts 311°
2026-05-05 11:10 51.01573 -0.41076 3770 ft 240 kts 311°
2026-05-05 11:10 51.02585 -0.43115 3639 ft 230 kts 311°
2026-05-05 11:10 51.03543 -0.45080 3518 ft 221 kts 311°
2026-05-05 11:10 51.04474 -0.46986 3389 ft 215 kts 311°
2026-05-05 11:11 51.05376 -0.48834 3265 ft 209 kts 311°
2026-05-05 11:11 51.06253 -0.50648 3143 ft 204 kts 311°
2026-05-05 11:11 51.07104 -0.52421 3052 ft 199 kts 311°
2026-05-05 11:11 51.08042 -0.53952 3001 ft 190 kts 335°
2026-05-05 11:12 51.09284 -0.54169 3005 ft 182 kts 22°
2026-05-05 11:12 51.10158 -0.52787 3010 ft 187 kts 70°
2026-05-05 11:12 51.10378 -0.50712 3026 ft 192 kts 76°
2026-05-05 11:12 51.10666 -0.48644 3017 ft 191 kts 73°
2026-05-05 11:13 51.10965 -0.46588 3015 ft 190 kts 74°
2026-05-05 11:13 51.11242 -0.44629 3023 ft 175 kts 74°
2026-05-05 11:13 51.11500 -0.42800 2961 ft 166 kts 75°
2026-05-05 11:13 51.11748 -0.41034 2800 ft 161 kts 73°
2026-05-05 11:14 51.11990 -0.39311 2591 ft 159 kts 73°
2026-05-05 11:14 51.12231 -0.37597 2404 ft 157 kts 74°
2026-05-05 11:14 51.12468 -0.35905 2196 ft 156 kts 72°
2026-05-05 11:14 51.12707 -0.34200 1980 ft 165 kts 74°
2026-05-05 11:15 51.12949 -0.32460 1736 ft 154 kts 73°
2026-05-05 11:15 51.13168 -0.30878 1530 ft 141 kts 72°
2026-05-05 11:15 51.13378 -0.29370 1342 ft 139 kts 72°
2026-05-05 11:15 51.13585 -0.27887 1156 ft 136 kts 72°
2026-05-05 11:16 51.13789 -0.26424 967 ft 134 kts 75°
2026-05-05 11:16 51.13988 -0.24994 790 ft 135 kts 76°
2026-05-05 11:16 51.14193 -0.23513 609 ft 135 kts 75°
2026-05-05 11:16 51.14393 -0.22062 396 ft 136 kts 76°
2026-05-05 11:17 51.14601 -0.20595 241 ft 135 kts 76°
2026-05-05 11:17 51.14784 -0.19254 206 ft 107 kts 78°
2026-05-05 11:17 51.14881 -0.18553 204 ft 34 kts 77°
2026-05-05 11:17 51.14926 -0.18214 204 ft 29 kts 77°
2026-05-05 11:18 51.14993 -0.17935 206 ft 24 kts 54°
2026-05-05 11:18 51.15066 -0.17777 208 ft 13 kts 49°
2026-05-05 11:18 51.15109 -0.17755 205 ft 0 kts 354°
2026-05-05 11:19 51.15113 -0.17756 205 ft 4 kts 353°
2026-05-05 11:19 51.15180 -0.17769 209 ft 15 kts 353°
2026-05-05 11:19 51.15264 -0.17715 207 ft 15 kts 70°
2026-05-05 11:20 51.15288 -0.17541 204 ft 17 kts 77°
2026-05-05 11:20 51.15328 -0.17369 208 ft 16 kts 28°
2026-05-05 11:20 51.15444 -0.17402 205 ft 18 kts 347°
2026-05-05 11:20 51.15539 -0.17479 214 ft 11 kts 287°
2026-05-05 11:21 51.15588 -0.17551 210 ft 9 kts 328°
2026-05-05 11:21 51.15600 -0.17562 209 ft 0 kts 329°
2026-05-05 11:23 51.15599 -0.17562 204 ft 0 kts 329°